When you browse on this site, cookies collect data to enhance your experience and personalize the content and advertising you see.
Visit our Privacy Policy to learn more. By continuing to use the site, you agree to this use of cookies and data.
  • In Hungary
  • List of Countries
  • For 7 days
  • Water Temperature
  • Weather Map
  • News
  • Weather Widgets
  • user-avatar
    Login

    Hourly Weather Bergisch Gladbach

    Today, 4 April, Saturday

    Time Temperature Precipitation Wind Pressure Humidity
    00:00 +3°C° 0 mm 0 mps 757 mmHg 78%
    01:00 +3°C° 0 mm 0 mps 757 mmHg 79%
    02:00 +2°C° 0 mm 0 mps 758 mmHg 79%
    03:00 +2°C° 0 mm 0 mps 758 mmHg 80%
    04:00 +2°C° 0 mm 0 mps 758 mmHg 79%
    05:00 +2°C° 0 mm 0 mps 759 mmHg 78%
    06:00 +4°C° 0 mm 1 mps 759 mmHg 77%
    07:00 +6°C° 0 mm 1 mps 759 mmHg 67%
    08:00 +8°C° 0 mm 1 mps 759 mmHg 56%
    09:00 +9°C° 0 mm 2 mps 759 mmHg 46%
    10:00 +12°C° 0 mm 2 mps 759 mmHg 42%
    11:00 +13°C° 0 mm 2 mps 759 mmHg 39%
    12:00 +14°C° 0 mm 2 mps 759 mmHg 35%
    13:00 +15°C° 0 mm 2 mps 759 mmHg 35%
    14:00 +15°C° 0 mm 2 mps 758 mmHg 35%
    15:00 +15°C° 0 mm 2 mps 758 mmHg 35%
    16:00 +14°C° 0 mm 2 mps 758 mmHg 42%
    17:00 +12°C° 0 mm 2 mps 758 mmHg 48%
    18:00 +10°C° 0 mm 2 mps 758 mmHg 55%
    19:00 +9°C° 0 mm 2 mps 758 mmHg 57%
    20:00 +8°C° 0 mm 2 mps 759 mmHg 59%
    21:00 +7°C° 0 mm 2 mps 759 mmHg 62%
    22:00 +7°C° 0 mm 3 mps 759 mmHg 64%
    23:00 +5°C° 0 mm 3 mps 759 mmHg 66%

    Tomorrow, 5 April, Sunday

    Time Temperature Precipitation Wind Pressure Humidity
    00:00 +5°C° 0 mm 3 mps 759 mmHg 68%
    01:00 +5°C° 0 mm 3 mps 759 mmHg 70%
    02:00 +5°C° 0 mm 3 mps 759 mmHg 73%
    03:00 +5°C° 0 mm 3 mps 759 mmHg 75%
    04:00 +5°C° 0 mm 3 mps 759 mmHg 75%
    05:00 +5°C° 0 mm 4 mps 759 mmHg 74%
    06:00 +5°C° 0 mm 4 mps 759 mmHg 73%
    07:00 +8°C° 0 mm 4 mps 759 mmHg 66%
    08:00 +10°C° 0 mm 5 mps 758 mmHg 58%
    09:00 +13°C° 0 mm 5 mps 758 mmHg 51%
    10:00 +14°C° 0 mm 5 mps 758 mmHg 47%
    11:00 +16°C° 0 mm 5 mps 757 mmHg 43%
    12:00 +17°C° 0 mm 5 mps 757 mmHg 40%
    13:00 +17°C° 0 mm 5 mps 756 mmHg 40%
    14:00 +19°C° 0 mm 5 mps 756 mmHg 40%
    15:00 +19°C° 0 mm 4 mps 755 mmHg 40%
    16:00 +17°C° 0 mm 4 mps 755 mmHg 46%
    17:00 +16°C° 0 mm 3 mps 755 mmHg 52%
    18:00 +13°C° 0 mm 3 mps 755 mmHg 58%
    19:00 +12°C° 0 mm 3 mps 755 mmHg 61%
    20:00 +11°C° 0 mm 3 mps 755 mmHg 64%
    21:00 +11°C° 0 mm 3 mps 755 mmHg 66%
    22:00 +10°C° 0 mm 3 mps 755 mmHg 68%
    23:00 +10°C° 0 mm 3 mps 755 mmHg 70%

    Day after tomorrow, 6 April, Monday

    Time Temperature Precipitation Wind Pressure Humidity
    00:00 +9°C° 0 mm 3 mps 755 mmHg 72%
    01:00 +9°C° 0 mm 3 mps 755 mmHg 73%
    02:00 +9°C° 0 mm 3 mps 755 mmHg 75%
    03:00 +8°C° 0 mm 3 mps 755 mmHg 76%
    04:00 +9°C° 0 mm 3 mps 755 mmHg 75%
    05:00 +9°C° 0 mm 3 mps 755 mmHg 75%
    06:00 +9°C° 0 mm 3 mps 756 mmHg 74%
    07:00 +11°C° 0 mm 3 mps 756 mmHg 66%
    08:00 +13°C° 0 mm 4 mps 756 mmHg 58%
    09:00 +17°C° 0 mm 4 mps 756 mmHg 50%
    10:00 +18°C° 0 mm 4 mps 756 mmHg 45%
    11:00 +19°C° 0 mm 4 mps 756 mmHg 40%
    12:00 +20°C° 0 mm 4 mps 756 mmHg 35%
    13:00 +20°C° 0 mm 4 mps 756 mmHg 36%
    14:00 +21°C° 0 mm 4 mps 756 mmHg 36%
    15:00 +21°C° 0 mm 4 mps 757 mmHg 37%
    16:00 +19°C° 0 mm 3 mps 757 mmHg 42%
    17:00 +18°C° 0 mm 3 mps 757 mmHg 48%
    18:00 +16°C° 0 mm 2 mps 758 mmHg 54%
    19:00 +15°C° 0 mm 2 mps 759 mmHg 59%
    20:00 +14°C° 0 mm 2 mps 759 mmHg 63%
    21:00 +12°C° 0 mm 2 mps 760 mmHg 68%
    22:00 +12°C° 0 mm 1 mps 760 mmHg 73%
    23:00 +11°C° 0 mm 1 mps 761 mmHg 77%

    7 April, Tuesday

    Time Temperature Precipitation Wind Pressure Humidity
    00:00 +10°C° 0 mm 1 mps 761 mmHg 82%
    01:00 +9°C° 0 mm 0 mps 762 mmHg 83%
    02:00 +9°C° 0 mm 0 mps 762 mmHg 83%
    03:00 +9°C° 0 mm 0 mps 762 mmHg 84%
    04:00 +10°C° 0 mm 0 mps 762 mmHg 85%
    05:00 +10°C° 0 mm 0 mps 763 mmHg 86%
    06:00 +10°C° 0 mm 0 mps 763 mmHg 87%
    07:00 +11°C° 0 mm 0 mps 763 mmHg 79%
    08:00 +14°C° 0 mm 1 mps 764 mmHg 72%
    09:00 +16°C° 0 mm 1 mps 764 mmHg 64%
    10:00 +18°C° 0 mm 1 mps 764 mmHg 60%
    11:00 +19°C° 0 mm 1 mps 764 mmHg 55%
    12:00 +21°C° 0 mm 1 mps 764 mmHg 50%
    13:00 +21°C° 0 mm 1 mps 763 mmHg 50%
    14:00 +21°C° 0 mm 1 mps 763 mmHg 49%
    15:00 +21°C° 0 mm 1 mps 763 mmHg 49%
    16:00 +19°C° 0 mm 1 mps 763 mmHg 56%
    17:00 +17°C° 0 mm 2 mps 763 mmHg 63%
    18:00 +16°C° 0 mm 2 mps 763 mmHg 70%
    19:00 +15°C° 0 mm 2 mps 763 mmHg 74%
    20:00 +14°C° 0 mm 2 mps 763 mmHg 78%
    21:00 +13°C° 0 mm 2 mps 764 mmHg 82%
    22:00 +13°C° 0 mm 2 mps 764 mmHg 84%
    23:00 +12°C° 0 mm 1 mps 764 mmHg 85%

    8 April, Wednesday

    Time Temperature Precipitation Wind Pressure Humidity
    00:00 +12°C° 0 mm 1 mps 763 mmHg 87%
    01:00 +12°C° 0 mm 1 mps 763 mmHg 87%
    02:00 +11°C° 0 mm 1 mps 763 mmHg 88%
    03:00 +11°C° 0 mm 1 mps 763 mmHg 88%
    04:00 +11°C° 0 mm 1 mps 763 mmHg 87%
    05:00 +11°C° 0 mm 1 mps 763 mmHg 85%
    06:00 +12°C° 0 mm 1 mps 763 mmHg 84%
    07:00 +14°C° 0 mm 1 mps 763 mmHg 74%
    08:00 +16°C° 0 mm 1 mps 762 mmHg 64%
    09:00 +19°C° 0 mm 1 mps 762 mmHg 54%
    10:00 +21°C° 0 mm 1 mps 762 mmHg 48%
    11:00 +22°C° 0 mm 1 mps 762 mmHg 43%
    12:00 +22°C° 0 mm 0 mps 762 mmHg 38%
    13:00 +23°C° 0 mm 1 mps 761 mmHg 40%
    14:00 +23°C° 0 mm 1 mps 761 mmHg 42%
    15:00 +22°C° 0 mm 1 mps 761 mmHg 44%
    16:00 +21°C° 0 mm 1 mps 760 mmHg 49%
    17:00 +20°C° 0 mm 1 mps 760 mmHg 54%
    18:00 +19°C° 0 mm 1 mps 760 mmHg 59%
    19:00 +18°C° 0 mm 1 mps 760 mmHg 62%
    20:00 +16°C° 0 mm 2 mps 761 mmHg 64%
    21:00 +15°C° 0 mm 2 mps 761 mmHg 67%
    22:00 +15°C° 0 mm 2 mps 761 mmHg 68%
    23:00 +14°C° 0 mm 2 mps 761 mmHg 68%

    9 April, Thursday

    Time Temperature Precipitation Wind Pressure Humidity
    00:00 +13°C° 0 mm 1 mps 761 mmHg 69%
    01:00 +13°C° 0 mm 1 mps 761 mmHg 70%
    02:00 +12°C° 0 mm 1 mps 760 mmHg 71%
    03:00 +12°C° 0 mm 1 mps 760 mmHg 72%
    04:00 +12°C° 0 mm 1 mps 760 mmHg 72%
    05:00 +12°C° 0 mm 1 mps 760 mmHg 71%
    06:00 +12°C° 0 mm 1 mps 760 mmHg 70%
    07:00 +14°C° 0 mm 1 mps 760 mmHg 62%
    08:00 +16°C° 0 mm 1 mps 760 mmHg 54%
    09:00 +19°C° 0 mm 1 mps 760 mmHg 45%
    10:00 +19°C° 0 mm 2 mps 759 mmHg 41%
    11:00 +20°C° 0 mm 2 mps 759 mmHg 36%
    12:00 +23°C° 0 mm 2 mps 759 mmHg 31%
    13:00 +23°C° 0 mm 2 mps 758 mmHg 31%
    14:00 +23°C° 0 mm 2 mps 758 mmHg 31%
    15:00 +23°C° 0 mm 2 mps 757 mmHg 30%
    16:00 +20°C° 0 mm 2 mps 757 mmHg 36%
    17:00 +18°C° 0 mm 2 mps 757 mmHg 42%
    18:00 +17°C° 0 mm 2 mps 757 mmHg 48%
    19:00 +16°C° 0 mm 2 mps 757 mmHg 51%
    20:00 +15°C° 0 mm 2 mps 757 mmHg 54%
    21:00 +13°C° 0 mm 2 mps 757 mmHg 58%
    22:00 +13°C° 0 mm 2 mps 757 mmHg 59%
    23:00 +13°C° 0 mm 2 mps 757 mmHg 61%
    Show more